sat.trackr.live / text

‹ back to catalog

STARLINK-30609

NORAD 58085 · 2023-160L

PAYLOAD ACTIVE UNKNOWN

§ Identity

Operator
Country
US
Launch date
2023-10-18
Launch site
AFETR
Launch vehicle
Mass (kg)
RCS (m²)

Purposes: comms

External: N2YO · Heavens-Above · Gunter

§ Orbital elements

Epoch: 2026-09-20T03:20:46.284576Z

Period
94.27 min
Inclination
42.9969°
Eccentricity
0.0000473
Mean motion
15.27573718 rev/d
Perigee alt
482.7 km
Apogee alt
483.4 km
Semi-major
6,861.2 km
B*
7.4549e-6
RAAN
63.2098°
Arg perigee
278.8513°
Mean anomaly
81.2285°
Rev number
16,264

§ Raw data

STARLINK-306091 58085U 23160L   26263.13942459 -.00000057  00000+0  74549-5 0  99902 58085  42.9969  63.2098 0000473 278.8513  81.2285 15.27573718162644

JSON: /api/v1/satellites/58085 · /tle

For live sub-satellite position, see the globe view (requires WebGL).

§ Visibility from observer

Set your observer location to see the next 7 days of passes ≥ 10°. The values pass through the URL so the page stays shareable.

No JS? Fill the form by hand. The geolocation button needs JavaScript.